星链-4591 (STARLINK-4591 )

导读

STARLINK-4591是美国于2022年8月28日发射的星链系列卫星,隶属于SpaceX公司主导的星链卫星互联网项目。星链项目旨在构建全球卫星互联网星座,为全球偏远地区、海洋等信号覆盖薄弱区域提供高速宽带服务,该卫星入轨后进一步扩充了星链星座的规模,提升了星座的服务覆盖能力与稳定性。

基本信息
目录编号:
53607
目录名称:
STARLINK-4591
国际标识:
2022-104V
轨道中心:
EARTH
卫星名称:
星链-4591
卫星全名:
星链-4591 (STARLINK-4591 )
卫星状态:
在轨 (已飞行1387 天)
发射日期:
2022-08-28 UTC
国别 :
美国 (US)
星等 :
--
轨道信息
数据来源 国际轨道数据 AOE轨道数据
星历时间 2026-06-15T04:00:05+0800
4小时前
查看轨道信息
2026-06-10T07:00:00+0800
5天前
查看轨道信息
半长轴 6898.498km 6917.901km
偏心率 0.000146 0.0001177
轨道倾角 53.159° 53.164°
近地点辐角 125.110° 77.321°
升交点赤经 162.909° 184.909°
平近点角 136.040° 286.389°
近地点 519.353km 538.949km
远地点 521.369km 540.579km
周期 95.037分钟 95.438分钟
每日圈数 15.152037 15.088335
详细信息
固有亮度:
5
最大亮度:
2.5
卫星平台:
Starlink v1.5
覆盖范围:
全球
运营商:
太空探索技术公司
运营商所在国:
美国
制造商(研发单位):
太空探索技术公司
制造商所在国:
美国
使用方式:
暂无
卫星简介
星链(Starlink)计划是由太空探索技术公司(SpaceX)提出的一个巨型低轨卫星互联网星座项目,计划在2019年至2024年间在太空搭建由约1.2万颗卫星组成的“星链”网络,其中1584颗将部署在地球上空550千米处的近地轨道,并从2020年开始工作。该卫星仍在工作。
2D轨道图
3D轨道图
轨道高度分析图
轨道倾角分析图
轨道综合分析图
查看轨道综合分析图